[[{"header":{"parameterUnit":"m.s-1","parameterCategory":2,"la1":30.2992,"la2":30.254,"lo1":-89.0895,"lo2":-89.0443,"dy":0.0025,"dx":0.0025,"nx":19,"ny":19,"refTime":"2026-05-05T03:00:00:Z","depth":"0","parameterNumber":2,"parameterNumberName":"U-component_of_CURRENTS"},"data":[0,0,0,-0.2694,-0.2699,-0.2872,-0.2872,-0.2902,-0.2902,0,0,0,0,0,0,0,0,0,0,0,-0.2596,-0.2597,-0.2694,-0.2699,-0.2872,-0.2872,-0.2902,-0.2902,0,0,0,0,0,0,0,0,0,0,0,-0.2596,-0.2597,-0.2598,-0.27,-0.2872,-0.2872,-0.2902,-0.2812,0,0,0,0,0,0,0,0,0,0,-0.2665,-0.2597,-0.2597,-0.2598,-0.2701,-0.2872,-0.2872,-0.281,-0.2818,-0.2779,0,-0.2807,0,-0.2882,-0.2903,-0.2903,0,0,0,-0.2669,-0.2591,-0.2665,-0.2598,-0.2703,-0.2871,-0.2785,-0.2815,-0.2824,-0.2789,-0.2808,-0.2812,-0.2882,-0.2903,-0.2903,-0.2926,-0.2926,0,0,-0.266,-0.2598,-0.266,-0.2671,-0.2746,-0.278,-0.2791,-0.2823,-0.2809,-0.2809,-0.2815,-0.2883,-0.2903,-0.2903,-0.2926,-0.2926,0,0,0,-0.2652,-0.259,-0.2667,-0.2667,-0.2729,-0.2786,-0.2799,-0.2807,-0.2841,-0.2816,-0.2883,-0.2903,-0.2903,-0.2926,-0.2926,-0.2838,0,0,0,-0.2645,-0.259,-0.2662,-0.2623,-0.273,-0.2796,-0.2781,-0.2837,-0.2846,-0.2883,-0.2903,-0.2903,-0.2925,-0.2926,-0.284,-0.269,0,0,0,-0.2589,-0.2584,-0.261,-0.262,-0.2717,-0.2798,-0.2832,-0.2841,-0.2887,-0.2903,-0.2903,-0.2925,-0.2926,-0.2842,-0.2697,-0.2507,0,0,0,-0.2511,-0.2553,-0.2608,-0.2705,-0.2716,-0.2879,-0.2833,-0.2928,-0.2952,-0.2903,-0.2925,-0.2926,-0.2842,-0.2701,-0.2514,-0.2289,-0.2239,0,0,-0.253,-0.2553,-0.2628,-0.2685,-0.2813,-0.2853,-0.2923,-0.2925,-0.2933,-0.2895,-0.2898,-0.284,-0.2697,-0.2508,-0.2318,-0.2266,0,0,0,-0.2617,-0.2606,-0.2682,-0.2763,-0.2919,-0.2876,-0.2975,-0.2943,-0.2893,-0.2958,-0.2875,-0.2786,-0.2669,-0.2551,-0.2512,-0.2575,-0.2928,-0.2928,-0.2928,-0.2398,-0.2549,-0.2562,-0.27,-0.2789,-0.2904,-0.2883,-0.2833,-0.2919,-0.2868,-0.2746,-0.2571,-0.2455,-0.242,-0.2493,-0.2842,-0.2841,-0.2841,-0.2841,-0.2229,-0.2213,-0.2313,-0.2367,-0.2449,-0.2499,-0.26,-0.2667,-0.258,-0.2673,-0.2567,-0.2504,-0.2369,-0.2464,-0.2836,-0.2837,-0.2837,-0.2838,-0.2838,-0.1991,-0.1994,-0.2019,-0.2015,-0.1979,-0.2154,-0.2039,-0.2199,-0.2356,-0.2329,-0.211,-0.211,-0.215,-0.2242,-0.2241,-0.2239,-0.2238,-0.2237,-0.2236,-0.1735,-0.1756,-0.1683,-0.1654,-0.1624,-0.1589,-0.1674,-0.1697,-0.1741,-0.1897,-0.1896,-0.2087,-0.2384,-0.2359,-0.2214,-0.2218,-0.2221,-0.2223,-0.2224,-0.1525,-0.1557,-0.1419,-0.136,-0.1242,-0.1093,-0.117,-0.1131,-0.1148,-0.1148,-0.1516,-0.1681,-0.1638,-0.1671,-0.1629,-0.1301,-0.1301,-0.1301,-0.1301,-0.1385,-0.1389,-0.1219,-0.1074,-0.091,-0.087,-0.0674,-0.0668,-0.0886,-0.0987,-0.1181,-0.1353,-0.1388,-0.1345,-0.1386,-0.1345,-0.0953,-0.0953,-0.0954,-0.1242,-0.1225,-0.1056,-0.0951,-0.0773,-0.0657,-0.0447,-0.0291,-0.0597,-0.0961,-0.1308,-0.1323,-0.1618,-0.1667,-0.1649,-0.1701,-0.1654,0,0]},{"header":{"parameterUnit":"m.s-1","parameterCategory":2,"la1":30.2992,"la2":30.254,"lo1":-89.0895,"lo2":-89.0443,"dy":0.0025,"dx":0.0025,"nx":19,"ny":19,"refTime":"2026-05-05T03:00:00:Z","depth":"0","parameterNumber":3,"parameterNumberName":"V-component_of_CURRENTS"},"data":[0,0,0,0.0006,0.0007,0.0108,0.0109,0.0251,0.0252,0,0,0,0,0,0,0,0,0,0,0,-0.003,-0.003,0.0005,0.0007,0.0108,0.0109,0.0251,0.0252,0,0,0,0,0,0,0,0,0,0,0,-0.003,-0.003,-0.003,0.0007,0.0108,0.0109,0.0251,0.0178,0,0,0,0,0,0,0,0,0,0,0.0081,0.004,-0.003,-0.003,0.0008,0.0108,0.0109,0.0174,0.0182,0.0201,0,0.0198,0,0.0217,0.026,0.026,0,0,0,0.0034,0.0033,0.0051,-0.003,0.0008,0.0107,0.007,0.0179,0.0188,0.0211,0.02,0.0205,0.0219,0.026,0.0261,0.0239,0.0238,0,0,0.0028,0.0005,0.0045,0.0056,0.0011,0.0067,0.0073,0.0184,0.0189,0.0201,0.0209,0.0222,0.0261,0.0262,0.024,0.0239,0,0,0,-0.0006,0.0001,0.0017,0.005,0.0061,0.0069,0.0076,0.0185,0.0187,0.021,0.0223,0.0262,0.0263,0.0241,0.0239,0.0273,0,0,0,-0.0008,-0.0021,0.0013,0.0003,0.0058,0.0123,0.0074,0.0179,0.0192,0.0223,0.0262,0.0264,0.0242,0.024,0.0275,0.0335,0,0,0,-0.003,-0.0023,-0.0021,0.0001,0.0032,0.0121,0.0132,0.0183,0.0199,0.026,0.0264,0.0243,0.0241,0.0276,0.0335,0.0403,0,0,0,-0.0043,-0.0112,-0.0022,-0.0103,0.003,0.0023,0.0131,0.0139,0.0174,0.0262,0.0242,0.024,0.0277,0.0335,0.0402,0.0406,0.0411,0,0,-0.0155,-0.0126,-0.0182,-0.0101,-0.0143,0.0013,0.0044,0.0136,0.0146,0.0214,0.0214,0.0274,0.0335,0.0403,0.0258,0.0269,0,0,0,-0.0236,-0.0261,-0.027,-0.0258,-0.0216,-0.0046,0.0044,0.0095,0.0156,0.0153,0.0212,0.0249,0.0293,0.0289,0.0296,0.0496,0.0228,0.0228,0.0228,-0.0356,-0.0347,-0.0398,-0.0338,-0.0286,-0.0098,0.0028,0.0127,0.0112,0.0116,0.0229,0.0243,0.0231,0.0238,0.0442,0.015,0.015,0.015,0.015,-0.0474,-0.0477,-0.0418,-0.0462,-0.027,-0.0187,0.0061,0.0126,0.0264,0.0201,0.0241,0.0264,0.0249,0.0463,0.0151,0.0151,0.015,0.015,0.015,-0.0496,-0.0487,-0.0525,-0.0489,-0.0374,-0.0182,-0.0002,0.017,0.0282,0.0362,0.0346,0.0345,0.0584,0.0349,0.035,0.035,0.0351,0.0351,0.0351,-0.0463,-0.0497,-0.0523,-0.05,-0.046,-0.031,-0.004,0.0073,0.0283,0.0407,0.0407,0.0594,0.0305,0.0356,0.0359,0.0358,0.0357,0.0356,0.0355,-0.0444,-0.047,-0.0504,-0.0508,-0.0431,-0.0326,-0.0158,0.006,0.0227,0.0312,0.0733,0.0449,0.0462,0.0454,0.0506,0.0549,0.0549,0.0549,0.0549,-0.0403,-0.0429,-0.0456,-0.0449,-0.0389,-0.0297,-0.0189,0.0025,0.0503,0.0861,0.0928,0.0887,0.087,0.0906,0.0887,0.0947,0.1101,0.1102,0.1103,-0.0359,-0.0389,-0.0381,-0.0414,-0.0366,-0.0273,-0.0187,0.0058,0.0852,0.1149,0.1219,0.1195,0.1152,0.111,0.117,0.1128,0.1225,0,0]}],[{"header":{"parameterUnit":"m.s-1","parameterCategory":2,"la1":30.2992,"la2":30.254,"lo1":-89.0895,"lo2":-89.0443,"dy":0.0025,"dx":0.0025,"nx":19,"ny":19,"refTime":"2026-05-05T03:00:00:Z","depth":"2","parameterNumber":2,"parameterNumberName":"U-component_of_CURRENTS"},"data":[0,0,0,-0.2028,-0.203,-0.2105,-0.2105,-0.2142,-0.2142,0,0,0,0,0,0,0,0,0,0,0,-0.1986,-0.1987,-0.2028,-0.203,-0.2105,-0.2105,-0.2142,-0.2142,0,0,0,0,0,0,0,0,0,0,0,-0.1986,-0.1986,-0.1987,-0.2031,-0.2105,-0.2105,-0.2142,-0.2096,0,0,0,0,0,0,0,0,0,0,-0.2029,-0.2001,-0.1986,-0.1987,-0.2031,-0.2105,-0.2105,-0.2094,-0.2099,-0.2096,0,-0.2111,0,-0.2141,-0.2145,-0.2145,0,0,0,-0.2014,-0.1997,-0.2027,-0.1987,-0.2032,-0.2105,-0.2067,-0.2097,-0.2102,-0.2102,-0.2112,-0.2114,-0.2142,-0.2145,-0.2145,-0.2215,-0.2216,0,0,-0.201,-0.1989,-0.2024,-0.2031,-0.2055,-0.2064,-0.2069,-0.2101,-0.21,-0.2112,-0.2116,-0.2142,-0.2145,-0.2145,-0.2215,-0.2215,0,0,0,-0.2009,-0.1986,-0.2016,-0.2028,-0.2054,-0.2067,-0.2072,-0.2098,-0.2111,-0.2116,-0.2143,-0.2145,-0.2146,-0.2214,-0.2215,-0.2311,0,0,0,-0.2006,-0.1988,-0.2014,-0.2001,-0.2054,-0.2086,-0.2069,-0.2108,-0.2114,-0.2143,-0.2145,-0.2146,-0.2214,-0.2215,-0.2307,-0.2389,0,0,0,-0.1982,-0.1985,-0.1997,-0.2,-0.2043,-0.2087,-0.2101,-0.211,-0.2131,-0.2145,-0.2146,-0.2213,-0.2215,-0.2304,-0.2382,-0.2286,0,0,0,-0.1954,-0.1987,-0.1996,-0.2056,-0.2043,-0.2155,-0.2101,-0.2167,-0.2189,-0.2146,-0.2214,-0.2215,-0.2303,-0.2377,-0.2284,-0.2113,-0.2109,0,0,-0.1985,-0.199,-0.2033,-0.2045,-0.2154,-0.2143,-0.2244,-0.2236,-0.2197,-0.2195,-0.2197,-0.2308,-0.2381,-0.2285,-0.2179,-0.2172,0,0,0,-0.2039,-0.2058,-0.2098,-0.2161,-0.224,-0.2292,-0.2307,-0.2302,-0.2297,-0.2218,-0.2304,-0.2348,-0.2283,-0.2176,-0.2172,-0.222,-0.222,-0.222,-0.222,-0.2015,-0.2085,-0.2161,-0.2247,-0.2322,-0.2399,-0.2422,-0.2406,-0.2384,-0.2388,-0.2421,-0.242,-0.2311,-0.2305,-0.2394,-0.2394,-0.2395,-0.2395,-0.2395,-0.2037,-0.208,-0.2181,-0.2275,-0.2371,-0.2451,-0.2519,-0.2506,-0.2518,-0.2516,-0.2443,-0.2282,-0.2304,-0.2403,-0.2401,-0.24,-0.2399,-0.2399,-0.2398,-0.1992,-0.2026,-0.2099,-0.223,-0.2364,-0.2478,-0.2551,-0.2645,-0.2578,-0.2593,-0.2357,-0.2352,-0.2438,-0.2518,-0.2518,-0.2518,-0.2518,-0.2518,-0.2518,-0.1905,-0.1987,-0.2062,-0.2201,-0.2312,-0.2458,-0.2629,-0.2625,-0.2551,-0.2466,-0.2461,-0.2459,-0.2455,-0.2443,-0.2517,-0.2517,-0.2517,-0.2518,-0.2518,-0.1846,-0.1882,-0.1992,-0.2102,-0.2338,-0.2339,-0.2534,-0.2393,-0.2404,-0.2237,-0.2315,-0.232,-0.2249,-0.225,-0.2231,-0.2246,-0.2246,-0.2246,-0.2246,-0.1775,-0.181,-0.1971,-0.2136,-0.2278,-0.2316,-0.2089,-0.2021,-0.2031,-0.2083,-0.2091,-0.2055,-0.2068,-0.1986,-0.1993,-0.1967,-0.1914,-0.1914,-0.1914,-0.1721,-0.1801,-0.1899,-0.2084,-0.2251,-0.2165,-0.1737,-0.1454,-0.164,-0.1909,-0.2119,-0.2207,-0.2172,-0.2186,-0.2072,-0.2079,-0.2043,0,0]},{"header":{"parameterUnit":"m.s-1","parameterCategory":2,"la1":30.2992,"la2":30.254,"lo1":-89.0895,"lo2":-89.0443,"dy":0.0025,"dx":0.0025,"nx":19,"ny":19,"refTime":"2026-05-05T03:00:00:Z","depth":"2","parameterNumber":3,"parameterNumberName":"V-component_of_CURRENTS"},"data":[0,0,0,-0.037,-0.0368,-0.0244,-0.0244,-0.0074,-0.0073,0,0,0,0,0,0,0,0,0,0,0,-0.0416,-0.0416,-0.037,-0.0368,-0.0245,-0.0244,-0.0075,-0.0073,0,0,0,0,0,0,0,0,0,0,0,-0.0416,-0.0416,-0.0415,-0.0368,-0.0245,-0.0244,-0.0075,-0.0166,0,0,0,0,0,0,0,0,0,0,-0.0286,-0.0345,-0.0416,-0.0415,-0.0367,-0.0245,-0.0244,-0.0171,-0.0161,-0.0133,0,-0.0128,0,-0.0103,-0.0063,-0.0063,0,0,0,-0.0349,-0.0354,-0.0315,-0.0415,-0.0366,-0.0245,-0.0295,-0.0165,-0.0154,-0.012,-0.0125,-0.0119,-0.01,-0.0062,-0.0061,0.0073,0.0073,0,0,-0.0356,-0.0392,-0.0323,-0.0308,-0.0351,-0.0299,-0.0291,-0.0158,-0.0157,-0.0124,-0.0114,-0.0097,-0.0061,-0.006,0.0072,0.0073,0,0,0,-0.0388,-0.0398,-0.0361,-0.0316,-0.0297,-0.0296,-0.0287,-0.0162,-0.015,-0.0112,-0.0095,-0.006,-0.0059,0.0072,0.0073,0.0005,0,0,0,-0.0391,-0.0417,-0.0365,-0.0385,-0.0301,-0.0232,-0.0295,-0.0159,-0.0143,-0.0096,-0.006,-0.0057,0.0072,0.0072,0.0006,-0.0076,0,0,0,-0.0418,-0.042,-0.041,-0.0388,-0.0342,-0.0234,-0.0212,-0.0154,-0.0133,-0.0062,-0.0057,0.0071,0.0072,0.0007,-0.0072,0.0033,0,0,0,-0.0453,-0.0471,-0.0411,-0.0423,-0.0343,-0.0275,-0.0213,-0.0151,-0.0097,-0.006,0.0072,0.0073,0.0007,-0.007,0.0033,0.0164,0.0174,0,0,-0.0499,-0.0477,-0.0483,-0.0427,-0.0413,-0.0289,-0.0237,-0.0142,-0.007,0.0031,0.0035,0.0006,-0.0072,0.0033,0.0215,0.0223,0,0,0,-0.0513,-0.0529,-0.0506,-0.0488,-0.0404,-0.0337,-0.0213,-0.0134,-0.0031,-0.0036,0.0043,-0.0004,0.0065,0.0145,0.0153,0.0077,0.0077,0.0077,0.0076,-0.063,-0.0594,-0.0615,-0.0562,-0.0508,-0.0354,-0.0266,-0.0137,-0.005,-0.0006,-0.0029,0.0032,0.0116,0.0123,0.0034,0.0034,0.0033,0.0033,0.0033,-0.0733,-0.0756,-0.0712,-0.0726,-0.063,-0.0565,-0.0347,-0.0247,-0.0063,-0.0045,0.003,0.0103,0.0127,0.0028,0.0029,0.003,0.003,0.0031,0.0031,-0.0821,-0.0833,-0.0843,-0.0866,-0.0837,-0.0697,-0.0566,-0.0389,-0.0174,-0.0104,0.0106,0.0109,-0.0002,-0.0014,-0.0014,-0.0014,-0.0014,-0.0014,-0.0014,-0.0909,-0.0919,-0.0997,-0.1002,-0.1017,-0.0938,-0.0685,-0.0496,-0.0161,0.0024,0.0028,0.0018,0.0019,-0.0001,-0.0012,-0.0012,-0.0013,-0.0013,-0.0013,-0.1024,-0.1031,-0.1148,-0.1195,-0.1178,-0.1076,-0.0835,-0.0358,-0.0108,0.0099,0.0165,0.016,0.021,0.0207,0.0195,0.0234,0.0234,0.0234,0.0234,-0.1106,-0.1117,-0.1276,-0.1346,-0.1306,-0.1137,-0.0755,-0.0283,0.0122,0.0248,0.0246,0.0254,0.0246,0.0297,0.0292,0.028,0.0342,0.0342,0.0341,-0.1193,-0.1237,-0.1356,-0.1407,-0.137,-0.1136,-0.0763,-0.017,0.0266,0.0333,0.014,0.0266,0.0275,0.0263,0.0341,0.0333,0.0315,0,0]}],[{"header":{"parameterUnit":"m.s-1","parameterCategory":2,"la1":30.2992,"la2":30.254,"lo1":-89.0895,"lo2":-89.0443,"dy":0.0025,"dx":0.0025,"nx":19,"ny":19,"refTime":"2026-05-05T03:00:00:Z","depth":"4","parameterNumber":2,"parameterNumberName":"U-component_of_CURRENTS"},"data":[0,0,0,-0.1551,-0.1554,-0.169,-0.1691,-0.1782,-0.1783,0,0,0,0,0,0,0,0,0,0,0,-0.1507,-0.1508,-0.1551,-0.1554,-0.169,-0.1691,-0.1782,-0.1783,0,0,0,0,0,0,0,0,0,0,0,-0.1506,-0.1507,-0.1509,-0.1554,-0.169,-0.1691,-0.1782,-0.17,0,0,0,0,0,0,0,0,0,0,-0.1578,-0.1552,-0.1507,-0.1509,-0.1555,-0.169,-0.1691,-0.1697,-0.1705,-0.1696,0,-0.1724,0,-0.1752,-0.1787,-0.1787,0,0,0,-0.1556,-0.1545,-0.1578,-0.1509,-0.1556,-0.169,-0.1629,-0.1702,-0.1711,-0.1706,-0.1726,-0.173,-0.1753,-0.1787,-0.1787,-0.1883,-0.1884,0,0,-0.1549,-0.1533,-0.1572,-0.1584,-0.16,-0.1625,-0.1633,-0.1709,-0.1721,-0.1726,-0.1732,-0.1755,-0.1787,-0.1788,-0.1883,-0.1883,0,0,0,-0.1525,-0.1527,-0.1561,-0.1579,-0.1609,-0.1629,-0.1639,-0.1718,-0.1729,-0.1734,-0.1756,-0.1788,-0.1788,-0.1882,-0.1883,-0.1946,0,0,0,-0.1521,-0.1514,-0.1557,-0.1549,-0.1609,-0.1678,-0.1646,-0.1724,-0.1734,-0.1756,-0.1788,-0.1789,-0.1881,-0.1882,-0.1943,-0.1949,0,0,0,-0.1499,-0.1512,-0.1529,-0.1548,-0.1606,-0.1678,-0.1694,-0.1727,-0.1746,-0.1787,-0.1789,-0.1881,-0.1882,-0.194,-0.1944,-0.1954,0,0,0,-0.1474,-0.1506,-0.1529,-0.1582,-0.1605,-0.1705,-0.1694,-0.1774,-0.1816,-0.1788,-0.1881,-0.1883,-0.1939,-0.1942,-0.1952,-0.1664,0,0,0,-0.1495,-0.1508,-0.1541,-0.1565,-0.1655,-0.1686,-0.1785,-0.1832,-0.1829,-0.1849,-0.1853,-0.1944,-0.1944,-0.1954,-0.1752,0,0,0,0,-0.1535,-0.1557,-0.1592,-0.1653,-0.1726,-0.1803,-0.1856,-0.188,-0.193,-0.186,-0.1956,-0.1953,-0.1957,-0.1784,-0.189,-0.189,-0.1889,-0.1889,-0.1889,-0.1516,-0.157,-0.1632,-0.171,-0.1784,-0.1889,-0.1943,-0.198,-0.1981,-0.2017,-0.2015,-0.2075,-0.1898,-0.2036,-0.2037,-0.2037,-0.2037,-0.2037,-0.2038,-0.1526,-0.1548,-0.1647,-0.1725,-0.1826,-0.1916,-0.2022,-0.2048,-0.2098,-0.2089,-0.209,-0.1875,-0.2044,-0.2043,-0.2042,-0.2041,-0.2041,-0.204,-0.204,-0.1478,-0.1495,-0.1569,-0.1678,-0.1801,-0.1926,-0.1986,-0.2091,-0.2133,-0.2156,-0.1954,-0.2105,-0.2087,-0.2164,-0.2164,-0.2164,-0.2164,-0.2164,-0.2164,-0.1378,-0.1454,-0.1491,-0.1627,-0.1689,-0.1803,-0.1976,-0.2004,-0.2105,-0.1977,-0.2172,-0.2117,-0.2113,-0.2093,-0.2166,-0.2166,-0.2165,-0.2165,-0.2165,-0.1288,-0.1326,-0.136,-0.1413,-0.1534,-0.1596,-0.1805,-0.1837,-0.1845,-0.18,-0.1867,-0.1882,-0.1821,-0.1824,-0.1791,-0.1777,-0.1774,-0.177,0,-0.1196,-0.1226,-0.1224,-0.1244,-0.1273,-0.145,-0.1402,-0.15,-0.161,-0.1542,-0.1834,-0.1908,-0.1917,-0.1847,-0.1844,-0.1804,0,0,0,-0.1118,-0.1132,-0.1075,-0.1114,-0.1133,-0.1216,-0.1376,-0.1339,-0.1602,-0.1556,-0.1683,-0.1706,-0.1991,-0.217,-0.2111,-0.2106,-0.207,0,0]},{"header":{"parameterUnit":"m.s-1","parameterCategory":2,"la1":30.2992,"la2":30.254,"lo1":-89.0895,"lo2":-89.0443,"dy":0.0025,"dx":0.0025,"nx":19,"ny":19,"refTime":"2026-05-05T03:00:00:Z","depth":"4","parameterNumber":3,"parameterNumberName":"V-component_of_CURRENTS"},"data":[0,0,0,-0.0244,-0.0243,-0.0159,-0.0159,-0.0037,-0.0036,0,0,0,0,0,0,0,0,0,0,0,-0.0277,-0.0277,-0.0244,-0.0243,-0.016,-0.0159,-0.0037,-0.0036,0,0,0,0,0,0,0,0,0,0,0,-0.0277,-0.0277,-0.0277,-0.0242,-0.016,-0.0159,-0.0037,-0.01,0,0,0,0,0,0,0,0,0,0,-0.0182,-0.0226,-0.0277,-0.0277,-0.0242,-0.016,-0.0159,-0.0103,-0.0096,-0.0074,0,-0.0073,0,-0.0055,-0.0028,-0.0028,0,0,0,-0.0228,-0.0232,-0.0205,-0.0277,-0.0242,-0.016,-0.0193,-0.0099,-0.0092,-0.0065,-0.0072,-0.0067,-0.0053,-0.0028,-0.0027,0.0096,0.0097,0,0,-0.0233,-0.0261,-0.0211,-0.0201,-0.0235,-0.0196,-0.0191,-0.0095,-0.0096,-0.0071,-0.0064,-0.0051,-0.0027,-0.0026,0.0096,0.0097,0,0,0,-0.0256,-0.0265,-0.024,-0.0206,-0.0194,-0.0194,-0.0188,-0.01,-0.0091,-0.0062,-0.005,-0.0026,-0.0025,0.0095,0.0096,0.0012,0,0,0,-0.0258,-0.0278,-0.0242,-0.0257,-0.0196,-0.015,-0.0195,-0.0097,-0.0086,-0.0051,-0.0026,-0.0024,0.0095,0.0096,0.0013,-0.0082,0,0,0,-0.0278,-0.028,-0.0275,-0.0259,-0.0228,-0.0151,-0.0136,-0.0094,-0.0078,-0.0028,-0.0024,0.0094,0.0096,0.0014,-0.0078,-0.0046,0,0,0,-0.0303,-0.0317,-0.0276,-0.0285,-0.023,-0.0176,-0.0136,-0.0088,-0.0048,-0.0026,0.0095,0.0096,0.0014,-0.0075,-0.0045,-0.0061,0,0,0,-0.0336,-0.0322,-0.0326,-0.0287,-0.0278,-0.0185,-0.0151,-0.0084,-0.0016,0.0065,0.0068,0.0012,-0.0077,-0.0046,0.0017,0,0,0,0,-0.0346,-0.036,-0.0343,-0.0333,-0.0269,-0.0235,-0.0138,-0.0072,0.001,0.0012,0.0063,0.0009,0.0031,0.003,0.0102,0.0102,0.0102,0.0102,0.0102,-0.0436,-0.041,-0.0427,-0.0393,-0.0356,-0.0251,-0.02,-0.0092,-0.0007,0.0033,-0.002,-0.0011,-0.0011,0.0058,0.0057,0.0057,0.0057,0.0057,0.0056,-0.0515,-0.053,-0.0506,-0.0519,-0.0464,-0.0424,-0.0275,-0.02,-0.0091,-0.0033,-0.0004,-0.0012,0.0049,0.0051,0.0052,0.0053,0.0053,0.0054,0.0054,-0.0579,-0.0584,-0.0598,-0.0628,-0.0626,-0.0538,-0.0488,-0.0359,-0.0205,-0.019,-0.0109,-0.0056,-0.0092,-0.0133,-0.0134,-0.0134,-0.0134,-0.0134,-0.0135,-0.0635,-0.0647,-0.0711,-0.0734,-0.0762,-0.0742,-0.0606,-0.0504,-0.0335,-0.0235,-0.0204,-0.0075,-0.0068,-0.0099,-0.0139,-0.0138,-0.0137,-0.0137,-0.0137,-0.0705,-0.0717,-0.0811,-0.0863,-0.092,-0.089,-0.0774,-0.0532,-0.0425,-0.0297,-0.0214,-0.0209,-0.018,-0.0171,-0.0205,-0.0277,-0.0278,-0.0278,0,-0.0754,-0.0766,-0.0897,-0.0989,-0.1034,-0.0974,-0.0822,-0.0659,-0.0441,-0.0457,-0.0437,-0.0357,-0.0347,-0.0327,-0.0319,-0.0366,0,0,0,-0.0808,-0.0838,-0.0939,-0.1027,-0.1085,-0.0904,-0.0775,-0.0684,-0.0495,-0.0334,-0.0288,-0.0286,-0.0214,-0.0151,-0.0093,-0.0086,-0.0133,0,0]}]]